BEIDOU 3 (C01) 1 36287U 10001A 21109.94498463 -.00000279 00000-0 00000+0 0 9996 2 36287 1.7876 43.9349 0003911 79.1095 205.8086 1.00270646 41262 BEIDOU 5 (C06) 1 36828U 10036A 21109.59146465 -.00000110 00000-0 00000-0 0 9993 2 36828 54.1714 180.1377 0110742 234.7958 124.9721 1.00279532 39323 BEIDOU 6 (C04) 1 37210U 10057A 21110.23600355 -.00000111 00000-0 00000+0 0 9998 2 37210 0.7556 40.2073 0001976 175.2313 237.9809 1.00273498 38394 BEIDOU 7 (C07) 1 37256U 10068A 21109.81322872 -.00000185 00000-0 00000-0 0 9999 2 37256 50.9582 294.6966 0082949 215.1308 110.8277 1.00273829 37893 BEIDOU 8 (C08) 1 37384U 11013A 21110.23740904 -.00000177 00000-0 00000+0 0 9990 2 37384 59.7002 58.4875 0052951 207.8482 147.2321 1.00269958 36773 BEIDOU 9 (C09) 1 37763U 11038A 21109.70180130 -.00000081 00000-0 00000+0 0 9991 2 37763 54.4599 182.5733 0081443 225.4886 148.3853 1.00277532 35757 BEIDOU 10 (C10) 1 37948U 11073A 21109.98779010 -.00000124 00000-0 00000-0 0 9995 2 37948 51.0596 294.3027 0070071 213.7348 151.3586 1.00266596 34516 BEIDOU 11 (C05) 1 38091U 12008A 21110.15919991 .00000059 00000-0 00000+0 0 9994 2 38091 1.4290 65.8959 0008923 315.0665 303.5086 1.00273972 33584 BEIDOU 12 (C11) 1 38250U 12018A 21110.26659022 -.00000085 00000-0 00000+0 0 9990 2 38250 56.7565 7.5320 0021390 252.0599 270.2837 1.86234317 61201 BEIDOU 13 (C12) 1 38251U 12018B 21109.87875794 -.00000086 00000-0 00000-0 0 9994 2 38251 56.6795 6.8976 0012439 258.6818 48.0611 1.86234215 61191 BEIDOU 15 (C14) 1 38775U 12050B 21109.35716102 .00000064 00000-0 00000-0 0 9996 2 38775 55.1802 125.9751 0015786 315.7986 198.6246 1.86232297 58569 BEIDOU 16 (C02) 1 38953U 12059A 21109.96747190 -.00000173 00000-0 00000-0 0 9993 2 38953 1.8292 84.8071 0009306 283.2742 272.5080 1.00271288 31159 BEIDOU 17 (C31) 1 40549U 15019A 21110.23534191 -.00000152 00000-0 00000+0 0 9999 2 40549 52.5831 317.6616 0036795 186.8244 245.4395 1.00278848 22195 BEIDOU 18 (C57) 1 40748U 15037A 21110.01117851 -.00000086 00000-0 00000+0 0 9992 2 40748 55.9430 6.0166 0005582 6.7925 298.6814 1.86233336 39026 BEIDOU 19 (C58) 1 40749U 15037B 21109.81188729 -.00000087 00000-0 00000-0 0 9993 2 40749 55.9454 6.0100 0006239 332.4452 335.7797 1.86232203 39019 BEIDOU 20 (C18) 1 40938U 15053A 21109.92845208 -.00000098 00000-0 00000-0 0 9997 2 40938 52.1553 280.7262 0045097 189.3335 165.2950 1.00295721 20457 BEIDOU IGSO-6 (C13) 1 41434U 16021A 21109.94118155 -.00000144 00000-0 00000-0 0 9993 2 41434 57.4821 57.2530 0039301 217.1072 9.4055 1.00281244 18580 BEIDOU-2 G7 (C03) 1 41586U 16037A 21109.89632243 -.00000352 00000-0 00000-0 0 9992 2 41586 1.5770 65.4552 0009407 11.6667 204.2934 1.00275059 17898 BEIDOU-3 M1 (C19) 1 43001U 17069A 21109.62678604 .00000067 00000-0 00000-0 0 9996 2 43001 55.3351 125.9092 0012047 288.0363 203.3471 1.86231758 23505 BEIDOU-3 M2 (C20) 1 43002U 17069B 21109.62224138 .00000067 00000-0 00000-0 0 9996 2 43002 55.3347 125.9451 0010743 306.1192 225.7766 1.86231651 23498 BEIDOU-3 M3 (C27) 1 43107U 18003A 21110.40175117 -.00000086 00000-0 00000+0 0 9992 2 43107 55.3852 7.1085 0005516 37.4019 102.9796 1.86232463 22279 BEIDOU-3 M4 (C28) 1 43108U 18003B 21110.37160074 -.00000086 00000-0 00000+0 0 9995 2 43108 55.3788 7.1014 0002610 267.9861 257.3585 1.86232434 22276 BEIDOU-3 M5 (C21) 1 43207U 18018A 21109.49838987 .00000066 00000-0 00000-0 0 9995 2 43207 55.2939 126.0415 0007770 320.4038 39.5839 1.86231843 21647 BEIDOU-3 M6 (C22) 1 43208U 18018B 21109.02812620 .00000061 00000-0 00000-0 0 9996 2 43208 55.2937 126.0618 0010048 296.7922 63.1497 1.86231684 21635 BEIDOU-3 M7 (C29) 1 43245U 18029A 21109.59962836 -.00000088 00000-0 00000-0 0 9996 2 43245 55.3183 4.9306 0001388 5.3323 227.4278 1.86232615 20797 BEIDOU-3 M8 (C30) 1 43246U 18029B 21110.59602181 -.00000084 00000-0 10000-3 0 9993 2 43246 55.3144 4.9283 0005249 353.7813 233.1544 1.86233063 20803 BEIDOU IGSO-7 (C16) 1 43539U 18057A 21110.47659269 -.00000129 00000-0 00000+0 0 9990 2 43539 55.0537 179.4738 0037080 220.2978 93.3126 1.00286916 10264 BEIDOU-3 M9 (C23) 1 43581U 18062A 21110.48284543 .00000006 00000-0 00000+0 0 9996 2 43581 54.4246 246.5849 0002030 280.3127 80.6871 1.86231810 18553 BEIDOU-3 M10 (C24) 1 43582U 18062B 21110.20482412 .00000007 00000-0 00000+0 0 9993 2 43582 54.4260 246.5834 0005275 14.7293 251.1789 1.86232026 18543 BEIDOU-3 M11 (C25) 1 43602U 18067A 21110.07192697 .00000008 00000-0 00000+0 0 9990 2 43602 54.5018 245.1662 0006897 5.5649 213.5398 1.86231612 18038 BEIDOU-3 M12 (C26) 1 43603U 18067B 21109.88000914 .00000009 00000-0 00000+0 0 9999 2 43603 54.5005 245.1403 0004091 358.5352 2.3710 1.86231535 18052 BEIDOU-3 M13 (C32) 1 43622U 18072A 21109.55325454 .00000066 00000-0 00000-0 0 9993 2 43622 55.2583 125.6098 0008587 284.9522 247.0695 1.86231613 17550 BEIDOU-3 M14 (C33) 1 43623U 18072B 21109.43187367 .00000065 00000-0 00000-0 0 9999 2 43623 55.2587 125.6069 0006763 303.8396 237.0340 1.86231548 17550 BEIDOU-3 M15 (C34) 1 43647U 18078A 21110.11171564 -.00000086 00000-0 10000-3 0 9998 2 43647 55.2112 5.1088 0007663 356.7456 175.1702 1.86233047 17074 BEIDOU-3 M16 (C35) 1 43648U 18078B 21110.26780877 -.00000086 00000-0 10000-3 0 9998 2 43648 55.2081 5.1114 0005703 4.2818 180.8407 1.86232240 17091 BEIDOU-3 G1 (C59) 1 43683U 18085A 21109.94489740 -.00000277 00000-0 00000+0 0 9990 2 43683 1.1511 233.9422 0002854 15.0253 79.5320 1.00272307 9170 BEIDOU-3 M17 (C36) 1 43706U 18093A 21109.71309122 .00000010 00000-0 00000-0 0 9990 2 43706 54.5084 246.4651 0008048 271.5547 158.3059 1.86231787 16435 BEIDOU-3 M18 (C37) 1 43707U 18093B 21110.03425000 .00000008 00000-0 00000+0 0 9998 2 43707 54.5083 246.4445 0006905 303.1646 72.8207 1.86232065 16444 BEIDOU-3 IGSO-1 (C38) 1 44204U 19023A 21110.08077057 -.00000193 00000-0 00000+0 0 9991 2 44204 55.9406 57.5480 0015468 204.5981 87.4792 1.00256689 7468 BEIDOU-2 G8 1 44231U 19027A 21110.16106793 -.00000247 00000-0 00000+0 0 9994 2 44231 0.3398 326.9163 0005345 235.3079 208.7236 1.00268745 7182 BEIDOU-3 IGSO-2 (C39) 1 44337U 19035A 21109.39306655 -.00000100 00000-0 00000-0 0 9991 2 44337 55.0847 175.5241 0017620 194.4218 83.3935 1.00250643 6796 BEIDOU-3 M23 (C45) 1 44542U 19061A 21109.62926223 .00000011 00000-0 10000-3 0 9997 2 44542 54.7322 246.5271 0007367 337.2711 80.4351 1.86231493 10692 BEIDOU-3 M24 (C46) 1 44543U 19061B 21109.76246711 .00000010 00000-0 10000-3 0 9999 2 44543 54.7306 246.4927 0004568 331.6547 86.1318 1.86231860 10703 BEIDOU-3 IGSO-3 1 44709U 19073A 21108.96581678 -.00000133 00000-0 00000-0 0 9994 2 44709 57.9415 300.7628 0018188 197.5557 161.8634 1.00292347 5549 BEIDOU-3 M21 1 44793U 19078A 21110.18654079 -.00000086 00000-0 10000-3 0 9996 2 44793 55.0598 5.1791 0007518 3.5449 173.0528 1.86232559 9567 BEIDOU-3 M22 1 44794U 19078B 21110.17950926 -.00000086 00000-0 00000+0 0 9991 2 44794 55.0358 5.1784 0005472 357.0298 85.7237 1.86232790 9563 BEIDOU-3 M19 1 44864U 19090A 21109.48671347 .00000065 00000-0 00000-0 0 9999 2 44864 55.1932 125.8464 0017974 267.3948 265.4711 1.86231804 9132 BEIDOU-3 M20 1 44865U 19090B 21109.89273979 .00000070 00000-0 00000-0 0 9990 2 44865 55.1957 125.8640 0016635 281.0605 253.9502 1.86231767 9129 BEIDOU-3 G2 1 45344U 20017A 21110.22202275 -.00000142 00000-0 00000+0 0 9994 2 45344 2.5053 335.0534 0003001 92.8034 300.6243 1.00271703 4384 BEIDOU-3 G3 1 45807U 20040A 21110.53668507 -.00000356 00000-0 00000+0 0 9999 2 45807 2.4188 298.5223 0006919 15.1954 198.8424 1.00275978 3198